| time (UTC) | temp F | wind direction | speed MPH | gust MPH | rain 1hr in | rain 24hr in | rain mn in | humidity % | barometer mb |
| 20260903194602 | 79 | 190 | 0.0 | 0.0 | 0.00 | 0.06 | 0.06 | 69 | 1011.5 |
| 20260903194503 | 80 | 0 | 0.0 | 0.0 | 0.00 | 0.06 | 0.06 | 69 | 1011.5 |
| 20260903193504 | 80 | 0 | 0.0 | 0.0 | 0.00 | 0.06 | 0.06 | 69 | 1011.7 |
| 20260903193102 | 79 | 190 | 0.0 | 0.0 | 0.00 | 0.06 | 0.06 | 68 | 1011.8 |
| 20260903193003 | 80 | 0 | 0.0 | 0.0 | 0.00 | 0.06 | 0.06 | 68 | 1011.7 |
| 20260903192504 | 80 | 0 | 0.0 | 0.0 | 0.00 | 0.06 | 0.06 | 65 | 1011.7 |
| 20260903192003 | 81 | 0 | 0.0 | 0.0 | 0.00 | 0.06 | 0.06 | 66 | 1011.7 |
| 20260903191602 | 80 | 190 | 0.0 | 0.0 | 0.00 | 0.06 | 0.06 | 65 | 1011.7 |
| 20260903191503 | 81 | 0 | 0.0 | 0.0 | 0.00 | 0.06 | 0.06 | 65 | 1011.6 |
| 20260903190503 | 81 | 0 | 0.0 | 0.0 | 0.00 | 0.06 | 0.06 | 68 | 1011.7 |
| 20260903190108 | 81 | 190 | 0.0 | 2.0 | 0.00 | 0.06 | 0.06 | 67 | 1011.8 |
| 20260903190003 | 81 | 191 | 0.0 | 2.0 | 0.00 | 0.06 | 0.06 | 65 | 1011.8 |
| 20260903185504 | 81 | 191 | 0.0 | 2.0 | 0.00 | 0.06 | 0.06 | 63 | 1011.8 |
| 20260903185003 | 81 | 0 | 0.0 | 0.0 | 0.00 | 0.06 | 0.06 | 66 | 1011.7 |
| 20260903184602 | 81 | 190 | 0.0 | 2.0 | 0.00 | 0.06 | 0.06 | 66 | 1011.9 |
| 20260903184503 | 81 | 190 | 0.0 | 2.0 | 0.00 | 0.06 | 0.06 | 67 | 1011.8 |
| 20260903184003 | 82 | 191 | 0.0 | 2.0 | 0.00 | 0.06 | 0.06 | 62 | 1011.9 |
| 20260903183503 | 82 | 190 | 0.0 | 2.0 | 0.00 | 0.06 | 0.06 | 64 | 1011.9 |
| 20260903183102 | 81 | 190 | 0.0 | 2.0 | 0.00 | 0.06 | 0.06 | 68 | 1012.0 |
| 20260903183004 | 81 | 190 | 0.0 | 2.0 | 0.00 | 0.06 | 0.06 | 66 | 1011.9 |
| 20260903182003 | 80 | 191 | 0.0 | 2.0 | 0.00 | 0.06 | 0.06 | 69 | 1012.1 |
| 20260903181602 | 79 | 190 | 0.0 | 2.0 | 0.00 | 0.06 | 0.06 | 68 | 1012.2 |
| 20260903181503 | 80 | 191 | 0.0 | 2.0 | 0.00 | 0.06 | 0.06 | 68 | 1012.0 |
| 20260903180503 | 79 | 0 | 0.0 | 0.0 | 0.00 | 0.06 | 0.06 | 68 | 1012.2 |
| 20260903180003 | 79 | 0 | 0.0 | 0.0 | 0.00 | 0.06 | 0.06 | 70 | 1012.3 |
| 20260903175504 | 79 | 0 | 0.0 | 0.0 | 0.00 | 0.06 | 0.06 | 70 | 1012.5 |
| 20260903175003 | 79 | 0 | 0.0 | 0.0 | 0.00 | 0.06 | 0.06 | 69 | 1012.5 |
| 20260903174602 | 78 | 190 | 0.0 | 0.0 | 0.00 | 0.06 | 0.06 | 68 | 1012.6 |
| 20260903174504 | 79 | 0 | 0.0 | 0.0 | 0.00 | 0.06 | 0.06 | 66 | 1012.5 |
| 20260903174004 | 79 | 0 | 0.0 | 0.0 | 0.00 | 0.06 | 0.06 | 66 | 1012.5 |
| 20260903173503 | 79 | 0 | 0.0 | 0.0 | 0.00 | 0.06 | 0.06 | 68 | 1012.6 |
| 20260903173104 | 78 | 190 | 0.0 | 0.0 | 0.00 | 0.06 | 0.06 | 71 | 1012.6 |
| 20260903172503 | 78 | 0 | 0.0 | 0.0 | 0.00 | 0.06 | 0.06 | 71 | 1012.6 |
| 20260903171604 | 76 | 190 | 0.0 | 0.0 | 0.00 | 0.06 | 0.06 | 72 | 1012.6 |
| 20260903171504 | 77 | 191 | 0.0 | 2.0 | 0.00 | 0.06 | 0.06 | 72 | 1012.5 |
| 20260903171003 | 77 | 191 | 0.0 | 2.0 | 0.00 | 0.06 | 0.06 | 71 | 1012.6 |
| 20260903170109 | 76 | 190 | 0.0 | 0.0 | 0.00 | 0.06 | 0.06 | 73 | 1012.8 |
| 20260903170004 | 77 | 0 | 0.0 | 0.0 | 0.00 | 0.06 | 0.06 | 73 | 1012.8 |
| 20260903165503 | 77 | 0 | 0.0 | 0.0 | 0.00 | 0.06 | 0.06 | 71 | 1012.8 |
| 20260903165004 | 76 | 191 | 0.0 | 6.0 | 0.00 | 0.06 | 0.06 | 72 | 1012.8 |
| 20260903164603 | 75 | 190 | 0.0 | 6.0 | 0.00 | 0.06 | 0.06 | 71 | 1013.0 |
| 20260903164503 | 76 | 191 | 0.0 | 6.0 | 0.00 | 0.06 | 0.06 | 71 | 1012.9 |
| 20260903163504 | 76 | 191 | 0.0 | 4.0 | 0.00 | 0.06 | 0.06 | 72 | 1013.2 |
| 20260903163113 | 75 | 190 | 0.0 | 3.0 | 0.00 | 0.06 | 0.06 | 79 | 1013.2 |
| 20260903163003 | 75 | 191 | 0.0 | 3.0 | 0.00 | 0.06 | 0.06 | 78 | 1013.1 |
| 20260903162504 | 74 | 191 | 0.0 | 3.0 | 0.00 | 0.06 | 0.06 | 75 | 1013.1 |
| 20260903161612 | 74 | 190 | 0.0 | 2.0 | 0.00 | 0.06 | 0.06 | 75 | 1013.2 |
| 20260903161503 | 74 | 191 | 0.0 | 2.0 | 0.00 | 0.06 | 0.06 | 75 | 1013.1 |
| 20260903161004 | 74 | 191 | 0.0 | 1.0 | 0.00 | 0.06 | 0.06 | 75 | 1013.0 |
| 20260903160503 | 74 | 191 | 0.0 | 1.0 | 0.00 | 0.06 | 0.06 | 75 | 1013.1 |
| 20260903160107 | 74 | 190 | 0.0 | 0.0 | 0.00 | 0.06 | 0.06 | 77 | 1013.2 |
| 20260903160003 | 74 | 0 | 0.0 | 0.0 | 0.00 | 0.06 | 0.06 | 77 | 1013.1 |
| 20260903155504 | 74 | 191 | 0.0 | 2.0 | 0.00 | 0.06 | 0.06 | 77 | 1013.2 |
| 20260903155003 | 74 | 190 | 0.0 | 2.0 | 0.00 | 0.06 | 0.06 | 75 | 1013.2 |
| 20260903154602 | 74 | 190 | 0.0 | 1.0 | 0.00 | 0.06 | 0.06 | 75 | 1013.3 |
| 20260903154503 | 74 | 190 | 0.0 | 1.0 | 0.00 | 0.06 | 0.06 | 76 | 1013.3 |
| 20260903154004 | 74 | 190 | 0.0 | 1.0 | 0.00 | 0.06 | 0.06 | 77 | 1013.2 |
| 20260903153503 | 73 | 191 | 0.0 | 1.0 | 0.00 | 0.06 | 0.06 | 77 | 1013.2 |
| 20260903153103 | 73 | 190 | 0.0 | 1.0 | 0.00 | 0.06 | 0.06 | 79 | 1013.2 |
| 20260903153004 | 73 | 0 | 0.0 | 0.0 | 0.00 | 0.06 | 0.06 | 79 | 1013.1 |
| 20260903152503 | 72 | 0 | 0.0 | 0.0 | 0.00 | 0.06 | 0.06 | 79 | 1013.1 |
| 20260903152003 | 72 | 191 | 0.0 | 1.0 | 0.00 | 0.06 | 0.06 | 79 | 1013.1 |
| 20260903151603 | 71 | 190 | 0.0 | 2.0 | 0.00 | 0.06 | 0.06 | 79 | 1013.2 |
| 20260903151504 | 72 | 191 | 0.0 | 2.0 | 0.00 | 0.06 | 0.06 | 79 | 1013.1 |
| 20260903151003 | 72 | 191 | 0.0 | 2.0 | 0.00 | 0.06 | 0.06 | 80 | 1013.4 |
| 20260903150119 | 71 | 190 | 0.0 | 1.0 | 0.00 | 0.06 | 0.06 | 81 | 1013.5 |
| 20260903150004 | 71 | 191 | 0.0 | 1.0 | 0.00 | 0.06 | 0.06 | 81 | 1013.3 |
| 20260903145503 | 71 | 191 | 0.0 | 2.0 | 0.00 | 0.06 | 0.06 | 82 | 1013.4 |
| 20260903144604 | 70 | 190 | 0.0 | 2.0 | 0.00 | 0.06 | 0.06 | 82 | 1013.5 |
| 20260903144004 | 70 | 0 | 0.0 | 0.0 | 0.00 | 0.06 | 0.06 | 82 | 1013.5 |
| 20260903143504 | 70 | 0 | 0.0 | 0.0 | 0.00 | 0.06 | 0.06 | 82 | 1013.4 |
| 20260903143103 | 69 | 190 | 0.0 | 0.0 | 0.00 | 0.06 | 0.06 | 82 | 1013.4 |
| 20260903143003 | 69 | 0 | 0.0 | 0.0 | 0.00 | 0.06 | 0.06 | 82 | 1013.3 |
| 20260903142004 | 69 | 190 | 0.0 | 2.0 | 0.00 | 0.06 | 0.06 | 82 | 1013.4 |
| 20260903141604 | 68 | 190 | 0.0 | 2.0 | 0.00 | 0.06 | 0.06 | 82 | 1013.5 |
| 20260903141504 | 68 | 190 | 0.0 | 2.0 | 0.00 | 0.06 | 0.06 | 82 | 1013.4 |
| 20260903141003 | 68 | 0 | 0.0 | 0.0 | 0.00 | 0.06 | 0.06 | 82 | 1013.4 |
| 20260903140504 | 68 | 0 | 0.0 | 0.0 | 0.00 | 0.06 | 0.06 | 82 | 1013.4 |
| 20260903140003 | 67 | 0 | 0.0 | 0.0 | 0.00 | 0.06 | 0.06 | 82 | 1013.4 |
| 20260903135503 | 66 | 0 | 0.0 | 0.0 | 0.00 | 0.06 | 0.06 | 82 | 1013.6 |
| 20260903135003 | 66 | 0 | 0.0 | 0.0 | 0.00 | 0.06 | 0.06 | 82 | 1013.6 |
| 20260903134602 | 66 | 190 | 0.0 | 0.0 | 0.00 | 0.06 | 0.06 | 82 | 1013.6 |
| 20260903134503 | 66 | 0 | 0.0 | 0.0 | 0.00 | 0.06 | 0.06 | 82 | 1013.5 |
| 20260903134003 | 66 | 0 | 0.0 | 0.0 | 0.00 | 0.06 | 0.06 | 82 | 1013.7 |
| 20260903133503 | 65 | 0 | 0.0 | 0.0 | 0.00 | 0.06 | 0.06 | 82 | 1013.8 |
| 20260903133106 | 65 | 190 | 0.0 | 0.0 | 0.00 | 0.06 | 0.06 | 82 | 1014.0 |
| 20260903133003 | 65 | 0 | 0.0 | 0.0 | 0.00 | 0.06 | 0.06 | 82 | 1013.9 |
| 20260903132503 | 65 | 0 | 0.0 | 0.0 | 0.00 | 0.06 | 0.06 | 82 | 1014.1 |
| 20260903131604 | 64 | 190 | 0.0 | 0.0 | 0.00 | 0.06 | 0.06 | 82 | 1014.4 |
| 20260903131504 | 64 | 0 | 0.0 | 0.0 | 0.00 | 0.06 | 0.06 | 82 | 1014.3 |
| 20260903130100 | 64 | 190 | 0.0 | 0.0 | 0.00 | 0.06 | 0.06 | 82 | 1014.3 |
| 20260903124604 | 63 | 190 | 0.0 | 0.0 | 0.00 | 0.06 | 0.06 | 82 | 1014.2 |
| 20260903123056 | 63 | 190 | 0.0 | 0.0 | 0.00 | 0.06 | 0.06 | 82 | 1014.5 |
| 20260903121555 | 63 | 190 | 0.0 | 0.0 | 0.00 | 0.06 | 0.06 | 82 | 1014.7 |
| 20260903120055 | 63 | 190 | 0.0 | 0.0 | 0.00 | 0.06 | 0.06 | 82 | 1015.0 |
| 20260903114614 | 63 | 190 | 0.0 | 0.0 | 0.00 | 0.06 | 0.06 | 82 | 1015.0 |
| 20260903113056 | 62 | 190 | 0.0 | 0.0 | 0.00 | 0.06 | 0.06 | 82 | 1014.9 |
| 20260903111613 | 62 | 190 | 0.0 | 0.0 | 0.00 | 0.06 | 0.06 | 82 | 1015.0 |
| 20260903110052 | 62 | 190 | 0.0 | 0.0 | 0.00 | 0.06 | 0.06 | 82 | 1015.0 |
| 20260903104557 | 62 | 190 | 0.0 | 0.0 | 0.00 | 0.06 | 0.06 | 82 | 1015.0 |
| 20260903103103 | 62 | 190 | 0.0 | 0.0 | 0.00 | 0.06 | 0.06 | 82 | 1014.7 |
| 20260903101554 | 62 | 190 | 0.0 | 0.0 | 0.01 | 0.06 | 0.06 | 82 | 1014.6 |
| 20260903100049 | 62 | 190 | 0.0 | 0.0 | 0.01 | 0.06 | 0.06 | 82 | 1014.6 |
| 20260903094557 | 62 | 190 | 0.0 | 0.0 | 0.01 | 0.06 | 0.06 | 82 | 1014.8 |
| 20260903093120 | 62 | 190 | 0.0 | 0.0 | 0.01 | 0.06 | 0.06 | 82 | 1014.8 |
| 20260903091551 | 62 | 190 | 0.0 | 0.0 | 0.00 | 0.05 | 0.05 | 82 | 1014.9 |
| 20260903090044 | 62 | 190 | 0.0 | 0.0 | 0.00 | 0.05 | 0.05 | 82 | 1015.2 |
| 20260903084545 | 62 | 190 | 0.0 | 0.0 | 0.00 | 0.05 | 0.05 | 82 | 1015.2 |
| 20260903083046 | 62 | 190 | 0.0 | 0.0 | 0.01 | 0.05 | 0.05 | 82 | 1015.3 |
| 20260903081544 | 62 | 190 | 0.0 | 0.0 | 0.01 | 0.05 | 0.05 | 82 | 1015.2 |
| 20260903080042 | 62 | 190 | 0.0 | 0.0 | 0.01 | 0.05 | 0.05 | 82 | 1015.2 |
| 20260903074544 | 62 | 190 | 0.0 | 0.0 | 0.01 | 0.05 | 0.05 | 82 | 1015.3 |
| 20260903073041 | 62 | 190 | 0.0 | 0.0 | 0.00 | 0.04 | 0.04 | 82 | 1015.5 |
| 20260903071549 | 62 | 190 | 0.0 | 0.0 | 0.01 | 0.04 | 0.04 | 82 | 1015.6 |
| 20260903070056 | 62 | 190 | 0.0 | 0.0 | 0.03 | 0.04 | 0.04 | 82 | 1015.2 |
| 20260903064537 | 62 | 190 | 0.0 | 0.0 | 0.04 | 0.04 | 0.04 | 82 | 1015.4 |
| 20260903063036 | 62 | 190 | 0.0 | 0.0 | 0.04 | 0.04 | 0.04 | 82 | 1015.6 |
| 20260903061530 | 62 | 190 | 0.0 | 0.0 | 0.03 | 0.03 | 0.03 | 81 | 1016.0 |
| 20260903060026 | 63 | 190 | 0.0 | 0.0 | 0.00 | 0.00 | 0.00 | 81 | 1016.8 |
| 20260903054535 | 63 | 190 | 0.0 | 0.0 | 0.00 | 0.00 | 0.00 | 81 | 1017.2 |
| 20260903053022 | 63 | 190 | 0.0 | 0.0 | 0.00 | 0.00 | 0.00 | 80 | 1017.4 |
| 20260903051521 | 63 | 190 | 0.0 | 0.0 | 0.00 | 0.00 | 0.00 | 79 | 1017.6 |
| 20260903050019 | 63 | 190 | 0.0 | 0.0 | 0.00 | 0.00 | 0.00 | 79 | 1017.7 |
| 20260903044518 | 63 | 190 | 0.0 | 0.0 | 0.00 | 0.00 | 0.00 | 80 | 1017.6 |
| 20260903043022 | 63 | 190 | 0.0 | 0.0 | 0.00 | 0.00 | 0.00 | 80 | 1017.7 |
| 20260903041520 | 63 | 190 | 0.0 | 0.0 | 0.00 | 0.00 | 0.00 | 80 | 1017.8 |
| 20260903040013 | 63 | 190 | 0.0 | 0.0 | 0.00 | 0.00 | 0.00 | 79 | 1017.9 |
| 20260903034519 | 63 | 190 | 0.0 | 0.0 | 0.00 | 0.00 | 0.00 | 79 | 1017.6 |
| 20260903033012 | 64 | 190 | 0.0 | 0.0 | 0.00 | 0.00 | 0.00 | 79 | 1017.6 |
| 20260903031510 | 64 | 190 | 0.0 | 0.0 | 0.00 | 0.00 | 0.00 | 79 | 1017.7 |
| 20260903030504 | 64 | 0 | 0.0 | 0.0 | 0.00 | 0.00 | 0.00 | 79 | 1017.5 |
| 20260903030004 | 64 | 0 | 0.0 | 0.0 | 0.00 | 0.00 | 0.00 | 79 | 1017.6 |
| 20260903025503 | 64 | 0 | 0.0 | 0.0 | 0.00 | 0.00 | 0.00 | 79 | 1017.8 |
| 20260903025003 | 64 | 0 | 0.0 | 0.0 | 0.00 | 0.00 | 0.00 | 79 | 1018.1 |
| 20260903024603 | 64 | 190 | 0.0 | 0.0 | 0.00 | 0.00 | 0.00 | 79 | 1018.3 |
| 20260903024503 | 64 | 0 | 0.0 | 0.0 | 0.00 | 0.00 | 0.00 | 79 | 1018.1 |
| 20260903024003 | 65 | 0 | 0.0 | 0.0 | 0.00 | 0.00 | 0.00 | 80 | 1018.3 |
| 20260903023503 | 65 | 0 | 0.0 | 0.0 | 0.00 | 0.00 | 0.00 | 80 | 1018.5 |
| 20260903023103 | 64 | 190 | 0.0 | 0.0 | 0.00 | 0.00 | 0.00 | 79 | 1018.7 |
| 20260903023003 | 65 | 0 | 0.0 | 0.0 | 0.00 | 0.00 | 0.00 | 79 | 1018.6 |
| 20260903022503 | 65 | 0 | 0.0 | 0.0 | 0.00 | 0.00 | 0.00 | 79 | 1018.7 |
| 20260903022003 | 65 | 0 | 0.0 | 0.0 | 0.00 | 0.00 | 0.00 | 79 | 1018.6 |
| 20260903021602 | 64 | 190 | 0.0 | 0.0 | 0.00 | 0.00 | 0.00 | 78 | 1018.9 |
| 20260903021004 | 65 | 0 | 0.0 | 0.0 | 0.00 | 0.00 | 0.00 | 79 | 1018.9 |
| 20260903020504 | 65 | 0 | 0.0 | 0.0 | 0.00 | 0.00 | 0.00 | 79 | 1018.9 |
| 20260903020104 | 65 | 190 | 0.0 | 0.0 | 0.00 | 0.00 | 0.00 | 79 | 1019.3 |
| 20260903015504 | 65 | 0 | 0.0 | 0.0 | 0.00 | 0.00 | 0.00 | 79 | 1018.9 |
| 20260903015003 | 65 | 0 | 0.0 | 0.0 | 0.00 | 0.00 | 0.00 | 78 | 1019.1 |
| 20260903014626 | 65 | 190 | 0.0 | 0.0 | 0.00 | 0.00 | 0.00 | 78 | 1019.4 |
| 20260903014503 | 65 | 0 | 0.0 | 0.0 | 0.00 | 0.00 | 0.00 | 78 | 1019.2 |
| 20260903013504 | 65 | 0 | 0.0 | 0.0 | 0.00 | 0.00 | 0.00 | 78 | 1019.0 |
| 20260903013110 | 65 | 190 | 0.0 | 0.0 | 0.00 | 0.00 | 0.00 | 78 | 1019.1 |
| 20260903013004 | 65 | 0 | 0.0 | 0.0 | 0.00 | 0.00 | 0.00 | 78 | 1018.8 |
| 20260903012503 | 65 | 0 | 0.0 | 0.0 | 0.00 | 0.00 | 0.00 | 78 | 1018.7 |
| 20260903012004 | 66 | 0 | 0.0 | 0.0 | 0.00 | 0.00 | 0.00 | 77 | 1018.6 |
| 20260903011602 | 65 | 190 | 0.0 | 0.0 | 0.00 | 0.00 | 0.00 | 77 | 1018.8 |
| 20260903011504 | 66 | 0 | 0.0 | 0.0 | 0.00 | 0.00 | 0.00 | 77 | 1018.7 |
| 20260903011004 | 66 | 0 | 0.0 | 0.0 | 0.00 | 0.00 | 0.00 | 76 | 1018.4 |
| 20260903010503 | 66 | 0 | 0.0 | 0.0 | 0.00 | 0.00 | 0.00 | 76 | 1018.2 |
| 20260903010003 | 66 | 0 | 0.0 | 0.0 | 0.00 | 0.00 | 0.00 | 74 | 1018.2 |
| 20260903005503 | 66 | 0 | 0.0 | 0.0 | 0.00 | 0.00 | 0.00 | 75 | 1018.1 |
| 20260903005003 | 66 | 0 | 0.0 | 0.0 | 0.00 | 0.00 | 0.00 | 76 | 1018.3 |
| 20260903004603 | 65 | 190 | 0.0 | 0.0 | 0.00 | 0.00 | 0.00 | 76 | 1018.6 |
| 20260903004504 | 66 | 0 | 0.0 | 0.0 | 0.00 | 0.00 | 0.00 | 76 | 1018.4 |
| 20260903004003 | 66 | 0 | 0.0 | 0.0 | 0.00 | 0.00 | 0.00 | 76 | 1018.4 |
| 20260903003503 | 66 | 0 | 0.0 | 0.0 | 0.00 | 0.00 | 0.00 | 76 | 1018.4 |
| 20260903003119 | 66 | 190 | 0.0 | 0.0 | 0.00 | 0.00 | 0.00 | 75 | 1018.7 |
| 20260903003004 | 66 | 0 | 0.0 | 0.0 | 0.00 | 0.00 | 0.00 | 75 | 1018.6 |
| 20260903002504 | 66 | 0 | 0.0 | 0.0 | 0.00 | 0.00 | 0.00 | 75 | 1018.4 |
| 20260903002004 | 66 | 0 | 0.0 | 0.0 | 0.00 | 0.00 | 0.00 | 74 | 1018.6 |
| 20260903001602 | 66 | 190 | 0.0 | 0.0 | 0.00 | 0.00 | 0.00 | 72 | 1018.8 |
| 20260903001504 | 66 | 0 | 0.0 | 0.0 | 0.00 | 0.00 | 0.00 | 72 | 1018.5 |
| 20260903001004 | 66 | 0 | 0.0 | 0.0 | 0.00 | 0.00 | 0.00 | 73 | 1018.4 |
| 20260903000504 | 66 | 0 | 0.0 | 0.0 | 0.00 | 0.00 | 0.00 | 75 | 1018.4 |
| 20260903000109 | 66 | 190 | 0.0 | 0.0 | 0.00 | 0.00 | 0.00 | 75 | 1018.6 |
| 20260903000003 | 66 | 0 | 0.0 | 0.0 | 0.00 | 0.00 | 0.00 | 75 | 1018.5 |
| 20260902235503 | 67 | 0 | 0.0 | 0.0 | 0.00 | 0.00 | 0.00 | 75 | 1018.5 |
| 20260902235004 | 67 | 0 | 0.0 | 0.0 | 0.00 | 0.00 | 0.00 | 74 | 1018.6 |
| 20260902234607 | 66 | 190 | 0.0 | 0.0 | 0.00 | 0.00 | 0.00 | 74 | 1018.8 |
| 20260902234504 | 67 | 0 | 0.0 | 0.0 | 0.00 | 0.00 | 0.00 | 73 | 1018.6 |
| 20260902234004 | 67 | 0 | 0.0 | 0.0 | 0.00 | 0.00 | 0.00 | 75 | 1018.6 |
| 20260902233503 | 67 | 0 | 0.0 | 0.0 | 0.00 | 0.00 | 0.00 | 75 | 1018.7 |
| 20260902233105 | 67 | 190 | 0.0 | 0.0 | 0.00 | 0.00 | 0.00 | 75 | 1019.0 |
| 20260902233003 | 68 | 0 | 0.0 | 0.0 | 0.00 | 0.00 | 0.00 | 75 | 1018.8 |
| 20260902232503 | 68 | 0 | 0.0 | 0.0 | 0.00 | 0.00 | 0.00 | 74 | 1019.0 |
| 20260902231603 | 68 | 190 | 0.0 | 0.0 | 0.00 | 0.00 | 0.00 | 72 | 1019.6 |
| 20260902231503 | 69 | 0 | 0.0 | 0.0 | 0.00 | 0.00 | 0.00 | 70 | 1019.5 |
| 20260902231003 | 69 | 0 | 0.0 | 0.0 | 0.00 | 0.00 | 0.00 | 72 | 1019.5 |
| 20260902230119 | 68 | 190 | 0.0 | 0.0 | 0.00 | 0.00 | 0.00 | 70 | 1019.7 |
| 20260902230004 | 69 | 0 | 0.0 | 0.0 | 0.00 | 0.00 | 0.00 | 69 | 1019.5 |
| 20260902225503 | 69 | 0 | 0.0 | 0.0 | 0.00 | 0.00 | 0.00 | 72 | 1019.5 |
| 20260902225003 | 69 | 0 | 0.0 | 0.0 | 0.00 | 0.00 | 0.00 | 72 | 1019.6 |
| 20260902224615 | 68 | 190 | 0.0 | 0.0 | 0.00 | 0.00 | 0.00 | 75 | 1019.9 |
| 20260902223504 | 69 | 0 | 0.0 | 0.0 | 0.00 | 0.00 | 0.00 | 76 | 1019.8 |
| 20260902223114 | 68 | 190 | 0.0 | 0.0 | 0.00 | 0.00 | 0.00 | 75 | 1019.9 |
| 20260902223003 | 69 | 0 | 0.0 | 0.0 | 0.00 | 0.00 | 0.00 | 76 | 1019.7 |
| 20260902222003 | 69 | 0 | 0.0 | 0.0 | 0.00 | 0.00 | 0.00 | 76 | 1019.6 |
| 20260902221609 | 69 | 190 | 0.0 | 0.0 | 0.00 | 0.00 | 0.00 | 75 | 1019.8 |
| 20260902220503 | 69 | 0 | 0.0 | 0.0 | 0.00 | 0.00 | 0.00 | 75 | 1019.5 |
| 20260902220105 | 69 | 190 | 0.0 | 0.0 | 0.00 | 0.00 | 0.00 | 74 | 1019.7 |
| 20260902220004 | 70 | 0 | 0.0 | 0.0 | 0.00 | 0.00 | 0.00 | 74 | 1019.5 |
| 20260902215504 | 70 | 0 | 0.0 | 0.0 | 0.00 | 0.00 | 0.00 | 73 | 1019.7 |
| 20260902215003 | 70 | 0 | 0.0 | 0.0 | 0.00 | 0.00 | 0.00 | 73 | 1019.6 |
| 20260902214504 | 70 | 0 | 0.0 | 0.0 | 0.00 | 0.00 | 0.00 | 72 | 1019.5 |
| 20260902214004 | 70 | 0 | 0.0 | 0.0 | 0.00 | 0.00 | 0.00 | 72 | 1019.6 |
| 20260902213503 | 70 | 0 | 0.0 | 0.0 | 0.00 | 0.00 | 0.00 | 71 | 1019.5 |
| 20260902213102 | 70 | 190 | 0.0 | 0.0 | 0.00 | 0.00 | 0.00 | 71 | 1019.6 |
| 20260902213004 | 70 | 0 | 0.0 | 0.0 | 0.00 | 0.00 | 0.00 | 71 | 1019.4 |
| 20260902212503 | 71 | 0 | 0.0 | 0.0 | 0.00 | 0.00 | 0.00 | 71 | 1019.3 |
| 20260902212003 | 71 | 0 | 0.0 | 0.0 | 0.00 | 0.00 | 0.00 | 71 | 1019.2 |
| 20260902211602 | 71 | 190 | 0.0 | 0.0 | 0.00 | 0.00 | 0.00 | 70 | 1019.5 |
| 20260902211503 | 71 | 0 | 0.0 | 0.0 | 0.00 | 0.00 | 0.00 | 70 | 1019.3 |
| 20260902211003 | 72 | 0 | 0.0 | 0.0 | 0.00 | 0.00 | 0.00 | 67 | 1019.4 |
| 20260902210504 | 72 | 0 | 0.0 | 0.0 | 0.00 | 0.00 | 0.00 | 65 | 1019.3 |
| 20260902210103 | 72 | 190 | 0.0 | 0.0 | 0.00 | 0.00 | 0.00 | 64 | 1019.4 |
| 20260902210003 | 73 | 190 | 0.0 | 1.0 | 0.00 | 0.00 | 0.00 | 63 | 1019.2 |
| 20260902205503 | 73 | 190 | 0.0 | 1.0 | 0.00 | 0.00 | 0.00 | 63 | 1019.0 |
| 20260902205003 | 73 | 191 | 0.0 | 3.0 | 0.00 | 0.00 | 0.00 | 62 | 1018.9 |
| 20260902204609 | 73 | 190 | 0.0 | 3.0 | 0.00 | 0.00 | 0.00 | 62 | 1019.0 |
| 20260902204503 | 73 | 191 | 0.0 | 3.0 | 0.00 | 0.00 | 0.00 | 62 | 1018.7 |
| 20260902204003 | 74 | 191 | 0.0 | 2.0 | 0.00 | 0.00 | 0.00 | 67 | 1018.8 |
| 20260902203504 | 73 | 190 | 0.0 | 2.0 | 0.00 | 0.00 | 0.00 | 63 | 1018.8 |
| 20260902203102 | 73 | 190 | 0.0 | 2.0 | 0.00 | 0.00 | 0.00 | 61 | 1019.2 |
| 20260902203003 | 74 | 191 | 0.0 | 2.0 | 0.00 | 0.00 | 0.00 | 63 | 1019.1 |
| 20260902202004 | 72 | 0 | 0.0 | 0.0 | 0.00 | 0.00 | 0.00 | 70 | 1019.2 |
| 20260902201632 | 72 | 190 | 0.0 | 0.0 | 0.00 | 0.00 | 0.00 | 72 | 1019.4 |
| 20260902201003 | 72 | 0 | 0.0 | 0.0 | 0.00 | 0.00 | 0.00 | 73 | 1019.6 |
| 20260902200504 | 72 | 0 | 0.0 | 0.0 | 0.00 | 0.00 | 0.00 | 72 | 1019.7 |
| 20260902200003 | 72 | 0 | 0.0 | 0.0 | 0.00 | 0.00 | 0.00 | 73 | 1019.6 |
| 20260902195503 | 72 | 0 | 0.0 | 0.0 | 0.00 | 0.00 | 0.00 | 73 | 1019.6 |
| 20260902195004 | 72 | 0 | 0.0 | 0.0 | 0.00 | 0.00 | 0.00 | 73 | 1019.7 |